Location: Cortada Guamacho
(10.5667°N, 67.0833°W)
Time: 16:53:48
(UTC+00:00)

SWIFT - Pass Details

Date: 04 July 2022
Orbit: 539 x 553 km, 20.6° (Epoch: 18 August)

Event Time Altitude Azimuth Distance (km) Brightness Sun altitude
Rises 01:19:59 0° 263° (W) 2,704 6.5 -32.2°
Reaches altitude 10° 01:22:20 10° 268° (W) 1,808 5.5 -32.6°
Enters shadow 01:23:15 16° 272° (W) 1,467 5.0 -32.8°
